FW3835 Weather Reports


Display with metric or nautical units.
time (UTC)temp
F
wind
direction
speed
MPH
gust
MPH
rain 1hr
in
rain 24hr
in
rain mn
in
humidity
%
barometer
mb
20260905163034 70 122 1.0 6.0 0.00 0.00 0.00 69 1018.6
20260905161512 69 84 4.0 8.0 0.00 0.00 0.00 70 1018.2
20260905160026 69 103 2.0 8.0 0.00 0.00 0.00 70 1018.1
20260905154531 68 90 1.0 10.0 0.00 0.00 0.00 71 1018.1
20260905153030 69 96 2.0 9.0 0.00 0.00 0.00 70 1017.8
20260905151514 69 115 3.0 12.0 0.00 0.00 0.00 70 1017.6
20260905150016 68 32 2.0 7.0 0.00 0.00 0.00 71 1017.7
20260905144527 65 142 3.0 9.0 0.00 0.00 0.00 74 1017.5
20260905143031 65 120 4.0 10.0 0.00 0.00 0.00 74 1017.8
20260905141531 65 90 2.0 9.0 0.00 0.00 0.00 74 1017.9
20260905140016 64 118 1.0 6.0 0.00 0.00 0.00 75 1017.9
20260905134523 65 113 4.0 7.0 0.00 0.00 0.00 73 1017.6
20260905133024 65 77 2.0 10.0 0.00 0.00 0.00 74 1017.5
20260905131546 64 96 3.0 8.0 0.00 0.00 0.00 76 1017.6
20260905130035 64 96 2.0 10.0 0.00 0.00 0.00 78 1017.8
20260905124535 63 80 2.0 7.0 0.00 0.00 0.00 79 1018.0
20260905123023 63 152 0.0 5.0 0.00 0.00 0.00 79 1017.9
20260905121533 63 211 3.0 9.0 0.00 0.00 0.00 79 1018.0
20260905120033 63 114 1.0 6.0 0.00 0.00 0.00 79 1017.8
20260905114541 63 124 1.0 9.0 0.00 0.00 0.00 79 1017.5
20260905113023 63 105 3.0 10.0 0.00 0.00 0.00 79 1017.2
20260905111510 63 96 4.0 9.0 0.00 0.00 0.00 79 1016.8
20260905110007 63 172 2.0 8.0 0.00 0.00 0.00 80 1016.8
20260905104512 63 138 1.0 10.0 0.00 0.00 0.00 79 1016.4
20260905103028 63 127 3.0 8.0 0.00 0.00 0.00 79 1016.1
20260905101527 63 96 1.0 7.0 0.00 0.00 0.00 79 1016.3
20260905100007 63 44 3.0 8.0 0.00 0.00 0.00 79 1016.2
20260905094508 63 106 1.0 9.0 0.00 0.00 0.00 79 1016.1
20260905093012 63 92 4.0 10.0 0.00 0.00 0.00 79 1016.0
20260905091519 63 90 2.0 7.0 0.00 0.00 0.00 79 1016.5
20260905090033 63 74 2.0 9.0 0.00 0.00 0.00 79 1016.6
20260905084520 63 223 1.0 8.0 0.00 0.00 0.00 79 1016.7
20260905083017 63 84 2.0 9.0 0.00 0.00 0.00 79 1016.7
20260905081516 63 88 1.0 9.0 0.00 0.00 0.00 78 1016.6
20260905080023 64 99 2.0 8.0 0.00 0.00 0.00 78 1016.8
20260905074528 64 118 1.0 6.0 0.00 0.00 0.00 78 1017.0
20260905073014 64 78 1.0 11.0 0.00 0.00 0.00 78 1017.0
20260905071510 64 86 2.0 7.0 0.00 0.00 0.00 78 1017.1
20260905070018 64 90 2.0 10.0 0.00 0.00 0.00 78 1017.0
20260905064529 64 114 1.0 7.0 0.00 0.00 0.00 79 1017.1
20260905063031 64 95 2.0 9.0 0.00 0.00 0.00 80 1017.1
20260905061508 64 125 1.0 7.0 0.00 0.00 0.00 80 1017.2
20260905060014 64 61 3.0 6.0 0.00 0.00 0.00 80 1017.3
20260905054519 64 78 2.0 9.0 0.00 0.00 0.00 80 1017.3
20260905053027 64 140 2.0 9.0 0.00 0.01 0.00 81 1017.3
20260905051536 63 128 2.0 9.0 0.00 0.01 0.00 81 1017.3
20260905050012 64 103 4.0 9.0 0.00 0.01 0.00 81 1017.2
20260905044516 64 105 2.0 8.0 0.00 0.01 0.01 81 1017.3
20260905043024 63 103 3.0 8.0 0.00 0.01 0.01 81 1017.2
20260905041527 63 98 2.0 7.0 0.00 0.01 0.01 80 1017.2
20260905040029 63 104 3.0 7.0 0.00 0.01 0.01 79 1017.1
20260905034521 63 102 4.0 9.0 0.00 0.01 0.01 78 1017.2
20260905033023 64 103 3.0 8.0 0.00 0.01 0.01 77 1017.1
20260905031533 64 130 3.0 7.0 0.00 0.01 0.01 76 1017.2
20260905030036 64 90 4.0 7.0 0.00 0.01 0.01 76 1017.3
20260905024539 65 92 2.0 7.0 0.00 0.02 0.01 75 1017.3
20260905023028 65 109 1.0 8.0 0.00 0.35 0.01 75 1017.1
20260905021528 66 107 2.0 7.0 0.00 0.48 0.01 74 1016.7
20260905020029 67 101 1.0 9.0 0.00 0.48 0.01 74 1016.6
20260905014529 67 128 3.0 7.0 0.00 0.48 0.01 74 1016.5
20260905013033 68 108 2.0 4.0 0.00 0.48 0.01 74 1016.3
20260905011516 69 107 0.0 6.0 0.00 0.48 0.01 73 1016.1
20260905010025 70 109 1.0 7.0 0.00 0.48 0.01 73 1015.8
20260905004531 70 90 2.0 7.0 0.00 0.48 0.01 72 1015.8
20260905003031 71 22 0.0 4.0 0.00 0.48 0.01 70 1015.9
20260905001536 72 21 1.0 3.0 0.00 0.48 0.01 67 1015.8
20260905000019 74 19 0.0 2.0 0.00 0.48 0.01 65 1015.7
20260904234538 75 19 0.0 3.0 0.00 0.48 0.01 64 1015.6
20260904233050 75 130 2.0 7.0 0.00 0.48 0.01 61 1015.7
20260904231531 76 91 0.0 4.0 0.00 0.48 0.01 62 1015.5
20260904230035 77 57 1.0 4.0 0.00 0.48 0.01 60 1015.7
20260904224537 77 51 1.0 3.0 0.00 0.48 0.01 58 1015.6
20260904223027 78 51 2.0 5.0 0.00 0.49 0.01 56 1015.6
20260904221534 77 39 1.0 5.0 0.00 0.52 0.01 58 1015.5
20260904220036 78 13 1.0 8.0 0.00 0.52 0.01 55 1015.5
20260904214540 78 13 1.0 5.0 0.00 0.55 0.01 56 1015.5
20260904213026 78 90 1.0 8.0 0.00 0.65 0.01 57 1015.6
20260904211528 78 40 2.0 8.0 0.00 0.67 0.01 57 1015.5
20260904210041 79 52 2.0 7.0 0.00 1.08 0.01 56 1015.5
20260904204532 78 63 3.0 6.0 0.00 1.79 0.01 57 1015.4
20260904203034 78 69 3.0 10.0 0.00 1.79 0.01 60 1015.6
20260904201526 78 30 2.0 11.0 0.00 1.79 0.01 58 1015.7
20260904200022 78 68 2.0 5.0 0.00 1.79 0.01 61 1015.6
20260904194512 77 85 4.0 8.0 0.00 1.79 0.01 59 1015.8
20260904193017 77 71 2.0 8.0 0.00 1.79 0.01 62 1015.8
20260904191525 77 101 2.0 6.0 0.00 1.79 0.01 62 1015.9
20260904190028 76 126 3.0 8.0 0.00 1.79 0.01 62 1016.0
20260904184518 75 42 3.0 8.0 0.00 1.79 0.01 63 1016.0
20260904183016 75 123 4.0 8.0 0.00 1.79 0.01 64 1016.0
20260904181523 75 126 1.0 8.0 0.00 1.79 0.01 67 1015.8
20260904180027 73 102 2.0 6.0 0.00 1.79 0.01 68 1015.9
20260904174537 72 149 2.0 7.0 0.00 1.79 0.01 71 1016.0
20260904173013 71 156 4.0 10.0 0.00 1.79 0.01 72 1015.8
20260904171519 70 54 4.0 8.0 0.00 1.79 0.01 73 1015.7
20260904170027 69 48 2.0 7.0 0.00 1.79 0.01 75 1015.7
20260904164530 67 110 1.0 8.0 0.00 1.79 0.01 76 1015.8